Tucson, AZ

2:45 AM MST on October 31, 2014 (GMT -0700)
UA WRRC WEATHER | Change Station
CLOSE
Current Station
Personal Weather Station
Location: Tucson, AZ
Elevation: 2431 ft
Nearby Weather Stations

Elev 2431 ft 32.23 °N, 110.94 °W | Updated 1 minute ago

Partly Cloudy
Partly Cloudy
63.7 °F
Feels Like 63.7 °F
N
0.0
Wind Variable Wind from NNE
Gusts 1.0 mph

Today
High -- | Low -- °F
--% Chance of Precip.
Yesterday
High -- | Low -- °F
Precip. -- in
6:40 AM 5:34 PM
First Quarter, 53% visible
Pressure 29.90 in
Visibility 10.0 miles
Clouds Clear
Dew Point 44 °F
Humidity 49%
Rainfall 0.00 in
Snow Depth Not available.
UV 0 out of 12
Pollen 4.80 out of 12
Air Quality Not available.
Flu Activity Not available.
METAR KDMA 310858Z AUTO 15008KT 10SM CLR 19/04 A3001 RMK AO2 SLP123 T01900038 55007 $

More Conditions Fewer Conditions

Pressure 29.90 in
Visibility 10.0 miles
Clouds Clear
Dew Point 44 °F
Humidity 49%
Rainfall 0.00 in
Snow Depth Not available.
UV 0 out of 12
Pollen 4.80 out of 12
Air Quality Not available.
Flu Activity Not available.
METAR KDMA 310858Z AUTO 15008KT 10SM CLR 19/04 A3001 RMK AO2 SLP123 T01900038 55007 $

More Conditions Fewer Conditions

10-Day Weather Forecast

Almanac

Astronomy

Oct. 31, 2014 Rise Set
Actual Time
Civil Twilight
Nautical Twilight
Astronomical Twilight
Moon
Length of Visible Light
Length of Day
Tomorrow will be .
, % of the Moon is Illuminated

Today's Extremes

State Highs State Lows

Community

WunderPhotos

Upload Photos

1,766,577 photos uploaded!

WunderBlogs® & News

Nearby

Air Quality

  Air Quality AQ Index Pollutant
Not available.

Snow Depth

Station Depth Elevation

Earthquake Activity

City Distance Mag. Time & Date
Minimum magnitude displayed is 2.5.

Coastal Water Temperatures

Place Temperature

Nearby Weather Stations